Theta_e
306 306 306 306 306 306 307 308 309 310 310 310 311 312 313 314 315 319 320 326 327 328 332 341 345 350 348 354 356 352 357 359 359 355 344 335 345 346 347 352 351 349 349 347 348
305 306 306 306 306 306 307 308 309 310 310 310 311 311 312 314 322 327 331 327 328 328 333 346 352 356 358 359 349 352 353 357 356 355 353 342 343 346 352 353 352 350 349 349 349
306 306 306 306 306 307 307 308 309 309 310 310 310 311 313 317 333 337 337 329 330 328 345 347 349 353 356 355 356 352 353 353 351 352 350 350 338 341 351 354 350 351 350 349 348
306 306 306 306 306 307 307 308 309 309 310 310 310 311 315 329 346 333 333 332 330 328 346 349 350 346 349 354 356 357 352 352 350 350 352 346 336 348 349 347 346 348 348 348 347
307 307 307 307 307 307 307 308 309 310 310 310 310 312 321 324 329 335 332 331 332 335 346 352 353 350 355 349 349 353 352 349 347 349 350 349 341 342 347 348 347 348 348 348 347
308 308 309 309 308 307 308 308 309 309 310 311 311 313 322 323 333 335 335 338 335 344 347 348 355 351 356 354 356 353 352 353 353 351 350 346 343 341 344 348 348 349 348 347 346
308 309 309 310 309 308 308 309 309 310 310 311 311 317 322 319 329 336 342 338 340 345 349 350 353 353 354 355 354 356 356 348 350 353 353 344 346 344 347 348 349 349 348 348 347
309 309 309 310 310 309 309 309 310 310 311 311 313 319 318 324 328 336 343 343 343 342 347 347 351 352 354 349 346 350 349 352 348 348 347 344 348 343 348 349 350 348 349 350 348
309 310 310 310 310 310 310 310 311 312 312 312 321 322 322 327 329 332 343 343 344 342 344 347 347 347 345 347 345 346 353 350 348 347 347 345 348 344 347 349 350 349 348 348 349
309 310 310 310 311 311 311 311 314 316 315 319 322 319 321 329 328 331 338 341 334 334 335 337 337 339 344 342 347 347 349 348 349 347 348 348 347 345 348 348 349 349 348 348 346
309 310 311 311 311 312 311 312 314 316 322 316 319 320 322 324 325 329 335 337 336 336 338 335 341 345 342 341 342 344 348 351 349 347 347 348 348 347 347 348 348 347 348 347 347
309 309 311 311 312 311 313 311 316 316 316 316 317 318 320 322 323 324 334 333 336 339 336 336 344 345 341 340 341 344 348 351 345 341 345 340 343 336 341 347 349 348 348 347 346
309 309 310 311 311 315 311 317 316 315 316 318 317 318 320 321 322 323 330 331 337 339 337 339 343 342 339 335 335 346 350 347 342 336 333 335 336 335 339 340 341 343 344 345 346
308 309 310 311 312 312 313 316 316 316 316 317 319 319 321 321 325 323 330 333 335 337 335 336 335 339 335 335 334 336 338 341 338 335 338 331 338 331 332 337 344 341 338 340 342
308 308 309 310 311 313 314 315 317 316 325 323 319 321 320 324 326 326 329 332 335 336 334 337 336 335 335 335 334 334 333 334 334 332 333 334 332 331 330 333 335 340 343 342 340
308 308 309 312 312 314 314 316 317 317 325 325 320 322 324 324 326 324 329 330 330 333 332 333 331 333 333 334 333 332 333 328 325 326 332 331 332 332 330 333 335 336 334 339 344
308 309 308 310 313 315 314 314 315 318 321 324 320 321 323 323 325 326 327 328 328 332 330 330 331 330 332 332 330 328 327 330 334 332 333 327 329 329 327 333 336 339 336 330 336
308 309 312 313 314 314 316 316 321 317 323 322 320 319 323 323 324 324 324 325 323 327 327 331 332 329 330 330 331 330 327 329 336 334 332 325 331 330 327 340 341 344 332 336 333
308 311 315 316 315 314 313 316 314 318 322 317 319 320 320 321 322 323 321 321 321 324 325 328 330 326 328 329 328 329 330 326 325 322 328 328 326 325 334 343 347 351 340 344 340
309 314 318 318 318 314 312 313 317 319 316 316 318 320 320 321 318 318 319 319 320 322 323 325 328 327 327 327 327 328 323 327 322 334 333 327 324 328 343 342 348 356 357 355 354
311 315 316 318 312 308 312 310 314 315 314 315 317 318 321 323 318 317 318 319 321 318 321 321 325 326 325 326 325 320 322 318 320 322 328 327 326 330 341 347 354 356 358 356 354
304 318 316 311 306 302 307 310 312 315 313 314 315 315 318 322 321 320 318 320 322 318 322 321 319 322 322 322 322 320 322 319 325 327 318 320 324 331 347 350 352 358 358 355 353
306 309 317 313 313 310 310 315 314 318 315 315 315 314 316 320 321 320 321 322 323 322 322 317 318 322 324 322 324 326 324 319 318 319 322 328 329 336 347 352 349 351 348 351 357
310 322 315 307 307 314 319 320 319 317 315 314 315 315 317 318 318 319 321 323 324 329 334 323 317 321 324 324 323 326 326 323 322 325 324 323 331 341 351 352 347 343 341 342 350
313 317 314 318 315 320 321 321 323 323 320 314 316 314 315 316 318 318 323 328 326 327 322 318 322 321 322 321 324 325 325 325 326 325 330 329 334 336 343 347 339 336 338 340 341
315 316 313 314 315 320 317 320 321 321 320 319 317 319 313 314 315 316 326 326 327 326 325 317 323 324 326 328 325 328 329 329 333 329 331 330 341 338 338 335 332 331 334 339 341
307 310 312 313 316 320 319 322 321 319 318 318 318 322 319 314 315 320 322 321 325 324 323 322 320 321 325 325 324 327 329 335 345 343 335 334 335 336 336 332 330 331 333 336 338
Wind_Speed
13 11 12 13 13 13 13 14 13 12 12 13 14 15 17 18 20 9 5 5 3 5 2 2 4 4 2 2 3 2 4 1 1 1 5 3 2 4 3 10 3 5 5 8 30
14 13 13 14 14 14 14 14 13 12 13 14 14 15 17 21 13 8 5 9 7 4 1 4 2 3 3 2 2 4 3 3 3 2 2 2 2 6 4 4 1 5 11 28 29
15 15 15 15 16 15 15 14 13 13 13 14 14 15 17 14 3 5 5 12 8 5 3 1 3 2 2 1 0 2 3 3 3 5 4 3 5 4 7 5 6 10 15 19 24
17 17 17 16 16 16 16 15 14 13 13 14 14 14 15 4 3 1 7 11 8 6 1 3 3 2 2 1 2 2 4 4 3 4 3 1 6 2 6 4 8 17 22 18 18
19 18 18 17 17 17 17 16 15 14 13 13 12 11 4 3 7 1 12 9 9 8 3 2 3 1 1 1 2 2 3 4 7 6 4 4 7 5 9 4 13 16 19 18 17
21 20 20 19 19 18 17 16 15 14 13 12 9 8 2 3 4 7 10 11 9 9 5 4 2 3 1 1 2 3 5 7 8 7 4 2 3 7 2 7 13 18 18 16 17
22 23 22 22 20 19 17 16 15 14 13 9 6 4 1 10 4 9 11 10 11 9 1 1 3 2 2 4 3 4 6 5 4 4 6 6 2 10 7 9 15 15 15 16 18
24 24 24 24 23 20 17 17 16 15 10 4 2 1 6 3 3 12 12 7 11 11 3 8 2 2 1 5 5 3 2 6 4 8 3 7 10 5 13 14 13 14 13 16 18
24 24 24 25 24 22 18 17 16 6 2 2 1 1 8 6 4 13 17 5 8 4 4 2 4 2 3 3 4 6 2 5 9 4 6 3 8 4 12 13 13 14 14 14 15
25 25 25 25 25 24 18 12 2 2 3 2 1 3 4 2 2 6 19 12 3 1 3 3 2 2 3 5 2 7 5 5 6 3 1 5 13 3 8 11 14 13 12 15 15
27 27 26 26 27 24 15 2 4 2 1 7 4 3 3 8 3 4 9 8 1 1 1 2 4 3 7 5 7 5 4 7 12 8 6 7 5 7 9 8 10 10 12 14 20
28 28 26 26 28 16 4 3 5 2 6 9 6 6 8 2 4 1 14 6 5 5 3 5 4 5 4 7 6 4 4 7 10 5 4 4 6 7 9 11 16 15 14 17 14
30 29 27 26 21 3 8 3 3 3 2 7 5 5 5 10 7 7 10 6 4 5 5 5 5 2 3 4 4 4 4 5 6 4 4 2 8 5 5 9 6 9 12 13 16
31 30 28 25 4 11 5 2 16 9 4 7 4 7 6 7 4 9 13 6 2 6 8 5 4 4 3 3 3 4 4 4 6 3 1 3 4 5 4 7 7 9 10 16 16
33 30 26 20 13 3 1 16 3 3 2 2 4 2 1 9 3 4 8 4 8 6 5 6 5 3 4 3 2 7 4 4 3 2 3 5 3 7 3 5 4 10 15 18 19
33 29 25 9 8 9 9 11 3 5 5 2 3 4 5 0 1 2 4 4 3 5 1 6 2 3 6 2 5 3 1 7 5 3 4 3 4 6 2 2 10 7 8 13 15
35 26 20 11 4 3 11 2 5 3 5 2 1 3 1 4 3 3 5 5 6 3 2 5 4 3 4 2 2 6 5 4 5 5 5 1 2 9 3 5 6 13 17 12 8
33 24 12 14 3 6 1 5 2 4 6 4 3 2 7 4 2 2 3 4 1 5 3 3 7 3 3 7 7 3 6 5 4 3 7 4 5 6 4 8 6 9 10 8 8
30 10 7 3 14 3 5 3 7 6 3 6 4 3 1 3 3 3 5 5 7 8 7 4 6 4 4 2 5 2 2 5 6 3 2 4 7 9 5 8 16 15 11 11 8
21 8 4 7 8 5 5 5 4 3 5 4 3 1 6 3 5 5 5 4 7 12 6 7 4 4 5 2 2 3 6 2 4 2 4 5 5 5 10 13 13 14 14 14 15
6 3 11 9 7 5 4 7 5 7 3 4 1 3 2 3 7 4 4 3 3 2 5 6 5 8 3 3 6 3 1 6 5 4 4 1 5 5 6 6 9 11 8 8 11
5 2 5 3 4 1 4 6 4 3 2 5 1 5 4 1 5 5 7 5 3 7 8 3 5 7 12 3 1 5 6 6 5 4 1 3 6 2 3 5 5 7 8 8 10
2 2 2 4 3 2 3 2 3 3 4 2 3 7 4 3 2 4 4 2 5 5 7 7 0 2 8 6 1 3 4 5 5 3 5 5 5 0 4 5 5 6 8 7 6
2 2 3 3 0 4 2 3 4 3 5 6 5 1 1 3 2 5 3 2 5 3 5 8 4 6 7 6 3 3 4 5 5 4 4 6 5 4 3 1 5 7 7 7 7
2 1 1 1 2 1 1 1 3 3 3 4 1 5 6 6 2 4 1 2 4 5 3 4 4 4 5 5 2 3 5 7 7 6 6 4 7 5 2 2 3 4 6 5 5
2 3 4 2 3 2 2 5 2 4 4 6 6 7 7 8 9 10 7 3 4 3 3 3 2 1 3 2 3 4 5 5 3 3 4 8 3 2 2 2 4 6 6 7 8
5 2 2 2 3 2 3 2 3 4 6 9 7 3 3 8 8 6 4 5 6 7 3 3 6 3 5 3 6 3 5 4 3 1 2 6 6 6 3 4 4 7 7 7 8
Wind_Direction
353 349 346 344 341 341 340 337 336 334 334 334 331 327 323 320 320 303 244 215 197 220 216 338 348 294 41 82 62 103 63 19 118 26 306 135 171 143 84 140 189 157 142 148 147
354 350 343 340 339 338 338 338 334 332 334 334 331 327 323 327 321 260 238 197 203 206 138 32 24 49 41 33 11 71 84 237 232 213 231 173 172 168 115 171 146 75 81 128 141
349 344 340 337 336 334 334 335 328 326 327 331 327 325 328 333 302 249 186 185 186 176 84 65 116 81 80 242 100 167 173 179 275 257 292 188 174 175 134 204 201 163 142 144 148
346 342 339 338 336 332 330 328 324 322 323 327 324 327 334 353 249 1 167 175 175 166 104 100 70 72 149 243 117 299 240 199 250 174 328 112 160 181 202 242 158 154 155 151 161
358 350 345 340 335 331 328 325 320 318 320 322 321 332 350 340 254 206 170 173 175 154 191 112 62 89 350 2 327 235 290 285 273 278 258 176 203 184 231 47 125 140 154 165 171
358 353 348 341 335 329 326 321 315 314 317 314 316 334 15 300 339 178 164 169 177 175 209 161 150 182 76 269 196 239 248 261 271 263 241 84 165 146 227 126 137 151 167 172 178
355 352 349 345 338 331 325 317 312 310 310 305 307 344 61 241 336 179 176 183 196 199 173 173 162 81 183 307 237 281 309 294 226 225 213 121 300 222 144 156 157 167 174 179 186
352 349 345 344 338 332 321 315 309 303 296 283 289 27 253 280 330 190 192 212 214 218 254 320 216 70 300 323 327 301 53 359 287 136 182 114 270 220 154 159 181 177 180 187 196
349 346 343 341 337 330 324 317 309 296 235 161 98 81 271 295 201 210 207 212 244 217 256 72 76 120 12 353 9 11 344 332 320 200 132 160 263 234 166 172 183 190 192 193 198
346 343 340 339 336 329 329 332 354 93 129 120 90 355 267 258 205 195 206 211 31 57 137 151 61 69 32 57 319 298 326 296 259 281 125 204 258 108 186 185 199 195 194 200 206
345 341 339 339 333 327 329 278 9 1 191 202 189 237 276 328 285 201 172 132 37 353 242 47 64 259 253 205 226 247 254 272 286 267 181 213 262 239 192 211 219 200 200 208 218
344 340 338 338 332 328 12 86 100 144 305 241 233 264 268 318 314 298 155 135 148 197 129 20 272 232 250 262 241 225 238 272 291 308 129 139 255 267 188 226 218 204 209 216 217
343 338 337 339 334 16 326 157 302 313 183 290 202 197 196 155 213 247 153 144 172 179 161 167 253 260 266 307 357 162 180 271 238 326 43 35 336 331 279 250 235 224 229 228 221
342 338 336 338 338 331 285 308 321 170 40 275 249 261 146 155 255 202 181 141 221 209 162 212 256 199 235 317 91 331 210 254 289 29 226 40 280 300 309 289 247 252 227 232 222
341 336 331 330 300 261 251 334 101 114 344 206 212 20 184 156 167 207 176 66 179 190 116 242 179 280 306 231 96 249 356 343 10 34 41 334 71 271 329 337 272 255 246 240 225
339 332 324 321 284 270 290 331 123 45 254 357 133 149 136 313 138 86 141 73 151 158 343 229 279 220 218 220 185 302 5 35 53 72 17 287 109 290 296 346 307 295 269 257 233
335 327 306 275 241 324 328 53 45 154 319 349 215 156 147 160 183 134 168 148 165 122 280 319 244 245 192 289 41 72 51 356 0 10 226 225 39 237 289 282 257 298 304 282 241
332 323 292 254 239 268 335 56 183 250 260 308 37 77 178 151 210 137 139 194 95 90 114 148 316 201 151 192 178 154 147 152 219 228 261 180 238 254 198 295 307 297 305 307 277
335 322 287 296 217 191 77 104 211 211 298 344 327 107 228 194 142 163 184 201 203 167 170 151 275 300 219 180 125 145 185 176 109 27 57 261 297 304 329 347 355 346 348 349 351
333 327 305 313 166 140 80 229 241 230 319 24 45 174 193 196 150 166 196 203 215 183 155 211 307 239 294 125 50 144 157 64 28 214 251 285 294 244 331 329 335 342 354 354 5
344 26 347 135 134 55 167 226 263 252 238 17 284 309 265 194 177 184 217 284 192 86 151 136 133 257 66 191 190 39 328 49 114 137 171 250 270 221 289 314 317 317 343 20 40
355 59 14 116 62 26 169 199 232 281 319 283 212 227 234 195 196 207 207 224 33 157 144 195 148 239 232 254 161 153 199 136 126 225 165 150 271 7 15 333 330 325 354 11 40
24 268 49 342 142 261 275 271 247 254 237 238 260 208 185 210 220 202 218 278 356 148 163 176 4 6 340 356 16 156 165 111 112 81 194 146 255 179 43 28 356 357 356 13 24
11 38 335 55 317 126 63 311 309 248 249 217 254 139 337 279 217 209 189 235 348 71 68 96 126 160 195 214 162 159 183 162 133 128 181 220 180 240 108 43 352 352 358 356 11
26 305 192 242 308 53 205 26 275 300 252 212 214 228 183 217 165 236 244 313 6 347 88 109 179 186 250 239 255 225 225 184 189 190 170 223 171 213 174 26 348 318 344 2 31
35 19 358 290 291 206 179 203 237 279 217 254 213 251 190 203 189 202 172 207 197 4 69 14 190 110 278 319 168 255 255 170 150 163 105 133 120 173 120 73 15 2 358 352 341
360 331 116 289 325 128 216 197 253 3 268 242 241 315 213 232 205 216 191 160 184 150 134 114 133 107 259 338 339 305 213 188 129 15 167 166 191 151 166 101 33 356 354 328 321